Regional Weather Roundup
Issued by NWS Little Rock, AR

Home | Current Version | Previous Version | Text Only | Print | Product List | Glossary On
Versions: 1 2 3 4 5 6 7 8 9 10 11 12 13 14 15 16 17 18 19 20 21 22 23 24 25 26 27 28 29 30 31 32 33 34 35 36 37 38 39 40 41 42 43 44 45 46 47 48 49 50
000
ASUS44 KLZK 231605
RWRLZK

WEATHER ROUNDUP FOR ARKANSAS
NATIONAL WEATHER SERVICE LITTLE ROCK AR
1100 AM CDT SAT AUG 23 2014

NOTE: "FAIR" INDICATES FEW OR NO CLOUDS BELOW 12,000 FEET WITH NO
SIGNIFICANT WEATHER AND/OR OBSTRUCTIONS TO VISIBILITY.

ARZ001-003-010-029-231700-
NORTHWEST ARKANSAS

CITY           SKY/WX    TMP DP  RH WIND       PRES   REMARKS
FAYETTEVILLE   SUNNY     88  69  53 SW9       30.04S HX  92
FORT SMITH     SUNNY     91  70  49 W7        30.01R HX  96
HARRISON       SUNNY     90  71  53 W6        30.06S HX  96
BENTONVILLE    SUNNY     88  70  55 SW10      30.06S HX  92
ROGERS         SUNNY     89  67  47 SW12      30.06S HX  92
SILOAM SPGS    SUNNY     88  70  55 SW10      30.05S HX  92
HIGHFILL       SUNNY     88  69  53 SW9       30.04S HX  92
SPRINGDALE     SUNNY     88  70  55 SW7       30.07R HX  92
$$

ARZ004-005-016-231700-
NORTH CENTRAL ARKANSAS

CITY           SKY/WX    TMP DP  RH WIND       PRES   REMARKS
BATESVILLE     SUNNY     91  73  55 N6        30.02S HX 100
FLIPPIN        SUNNY     91  68  46 SW7       30.03S HX  95
MTN HOME       SUNNY     90  70  51 VRB5      30.03S HX  95
$$

ARZ040-041-231700-
WEST CENTRAL ARKANSAS

CITY           SKY/WX    TMP DP  RH WIND       PRES   REMARKS
MENA           SUNNY     88  72  58 SW7       30.06S HX  94
MOUNT IDA      SUNNY     88  74  63 CALM      30.03R HX  96
$$

ARZ009-017-025-026-028-231700-
NORTHEAST ARKANSAS

CITY           SKY/WX    TMP DP  RH WIND       PRES   REMARKS
CORNING        LGT RAIN  90  77  66 SW3       30.00F HX 102
JONESBORO      SUNNY     91  74  57 VRB3      30.00F HX 100
NEWPORT        SUNNY     91  76  61 NW5       30.02S HX 102
WALNUT RIDGE   SUNNY     82  75  78 W5        29.99F HX  89
BLYTHEVILLE    SUNNY     88  80  77 VRB3      30.01S HX 104
$$

ARZ022-023-033-042-044-231700-
CENTRAL ARKANSAS

CITY           SKY/WX    TMP DP  RH WIND       PRES   REMARKS
LITTLE ROCK    SUNNY     91  71  51 W8        30.02S HX  97
N LITTLE ROCK  SUNNY     88  75  65 NW6       30.02S HX  97
JACKSONVILLE   SUNNY     89  74  62 SW8       30.02S HX  97
SEARCY           N/A     93  76  57 CALM        N/A  HX 105
HOT SPRINGS    SUNNY     88  74  63 VRB3      30.04S HX  96
RUSSELLVILLE   SUNNY     90  73  57 CALM      30.02S HX  98
CLINTON        FAIR      91  75  59 S3        30.02F HAZE    HX 102
$$

ARZ036-231700-
EAST ARKANSAS

CITY           SKY/WX    TMP DP  RH WIND       PRES   REMARKS
WEST MEMPHIS   SUNNY     90  76  63 NW7       30.01S HX 101
$$

ARZ050-053-066-070-073-231700-
SOUTHWEST ARKANSAS

CITY           SKY/WX    TMP DP  RH WIND       PRES   REMARKS
ARKADELPHIA    FAIR      89  77  67 W7        30.04S HX 101
CAMDEN         SUNNY     90  73  58 W6        30.04S HX  98
TEXARKANA      SUNNY     89  73  59 VRB3      30.04R HX  97
EL DORADO      SUNNY     87  74  64 W6        30.06R HX  95
DE QUEEN       SUNNY     85  75  72 VRB3      30.02R HX  93
$$

ARZ056-057-069-231700-
SOUTHEAST ARKANSAS

CITY           SKY/WX    TMP DP  RH WIND       PRES   REMARKS
PINE BLUFF     SUNNY     88  73  61 W9        30.03S HX  95
STUTTGART      SUNNY     90  75  62 W8        30.04R HX 100
MONTICELLO     SUNNY     87  74  64 VRB6      30.04S HX  95

$$




USA.gov is the U.S. government's official web portal to all federal, state and local government web resources and services.